ORIGAMISAT-1 (43933 NORAD) Tracking and Keplerian Element Data

This shows tracking and keplerian element data for the satellite.

Feedback or suggestion? Click here.




ElementValue
Catalog43933
NameORIGAMISAT-1
Epoch Orbit452
Epoch Day47.82475756
Epoch Year2019
RAAN109.2149
Inclination97.2991
Eccentricity0.0018817
Argument of Perigee148.4455
Mean Anonmoly324.0791
Mean Motion15.21439217
Decay Rate7E-06
L11 43933U 19003B 19047.82475756 .00000700 00000-0 34051-4 0 9994
L22 43933 97.2991 109.2149 0018817 148.4455 324.0791 15.21439217 4525

Live tracking and technical data element details for ORIGAMISAT-1 (NORAD 43933). ORIGAMISAT-1 can be tracked NOW for your location showing map with azimuth and elevation plus other details from your city location.

Track the satellite on the map from your city or location and see movement details for azimuth, elevation, latitude, longitude, range, height, and movement on the map or in text.







IsCatalogInMostPopularTable: catalog: 43933, numindb: 9
Update: records affected: 1



GetName: 43933 ORIGAMISAT-1

Hit Count: updated at: Thu, 21 Feb 2019 11:22:43 GMT